FW6291 Weather Reports


time (UTC)temp
C
wind
direction
speed
KPH
gust
KPH
rain 1hr
cm
rain 24hr
cm
rain mn
cm
humidity
%
barometer
mb
20260510065325 15 94 0.0 0.0 0.00 0.00 0.00 88 1012.3
20260510064323 15 79 0.0 0.0 0.00 0.00 0.00 88 1012.3
20260510063322 15 99 0.0 0.0 0.00 0.00 0.00 88 1012.3
20260510062321 15 99 0.0 0.0 0.00 0.00 0.00 88 1012.3
20260510061320 15 105 0.0 0.0 0.00 0.00 0.00 87 1012.4
20260510060319 15 109 0.0 0.0 0.00 0.00 0.00 87 1012.3
20260510055318 15 109 0.0 0.0 0.00 0.00 0.00 87 1012.3
20260510054317 15 86 0.0 1.6 0.00 0.00 0.00 87 1012.3
20260510053316 16 86 0.0 0.0 0.00 0.00 0.00 86 1012.4
20260510052315 16 86 0.0 0.0 0.00 0.00 0.00 86 1012.4
20260510050313 16 111 0.0 0.0 0.00 0.00 0.00 86 1012.4
20260510044311 16 116 0.0 0.0 0.00 0.00 0.00 85 1012.2
20260510043310 16 116 0.0 0.0 0.00 0.00 0.00 84 1012.2
20260510042309 16 123 0.0 0.0 0.00 0.00 0.00 84 1012.1
20260510041308 17 114 0.0 1.6 0.00 0.00 0.00 83 1012.0
20260510040307 17 85 0.0 1.6 0.00 0.00 0.00 82 1012.0
20260510035306 17 119 0.0 0.0 0.00 0.00 0.00 82 1011.7
20260510032305 18 130 0.0 1.6 0.00 0.00 0.00 79 1011.5
20260510031302 18 127 0.0 3.2 0.00 0.00 0.00 77 1011.4
20260510030301 18 147 0.0 3.2 0.00 0.00 0.00 76 1011.2
20260510025300 19 117 0.0 4.8 0.00 0.00 0.00 75 1011.2
20260510024258 19 118 0.0 6.4 0.00 0.00 0.00 74 1011.2
20260510023257 20 116 0.0 6.4 0.00 0.00 0.00 73 1011.0
20260510022257 20 101 1.6 4.8 0.00 0.00 0.00 71 1011.0
20260510021255 20 70 0.0 4.8 0.00 0.00 0.00 70 1010.8
20260510020255 21 47 3.2 8.0 0.00 0.00 0.00 69 1010.8
20260510015253 21 82 0.0 8.0 0.00 0.00 0.00 67 1010.8
20260510014252 22 98 0.0 6.4 0.00 0.00 0.00 66 1010.7
20260510012251 22 117 0.0 8.0 0.00 0.00 0.00 64 1010.6
20260510011249 23 120 0.0 4.8 0.00 0.00 0.00 62 1010.6
20260510005247 24 65 0.0 9.7 0.00 0.00 0.00 58 1010.5
20260510004246 25 46 0.0 9.7 0.00 0.00 0.00 56 1010.5
20260510003245 25 181 0.0 11.3 0.00 0.00 0.00 55 1010.5
20260510002244 26 155 0.0 9.7 0.00 0.00 0.00 54 1010.4
20260510001243 26 139 0.0 12.9 0.00 0.00 0.00 53 1010.5
20260510000242 26 89 1.6 9.7 0.00 0.00 0.00 52 1010.5
20260509235241 26 159 0.0 9.7 0.00 0.00 0.00 51 1010.5
20260509234240 27 139 3.2 9.7 0.00 0.00 0.00 50 1010.5
20260509233239 27 126 0.0 9.7 0.00 0.00 0.00 50 1010.5
20260509232238 27 95 1.6 8.0 0.00 0.00 0.00 49 1010.6
20260509230236 27 204 0.0 8.0 0.00 0.00 0.00 50 1010.7
20260509225235 27 142 0.0 12.9 0.00 0.00 0.00 51 1010.6
20260509224234 27 69 3.2 11.3 0.00 0.00 0.00 51 1010.8
20260509223233 27 162 1.6 11.3 0.00 0.00 0.00 51 1010.9
20260509221231 27 110 4.8 9.7 0.00 0.00 0.00 51 1011.2
20260509220230 28 107 0.0 4.8 0.00 0.00 0.00 51 1011.2
20260509215229 27 116 0.0 8.0 0.00 0.00 0.00 52 1011.3
20260509214228 27 159 0.0 8.0 0.00 0.00 0.00 52 1011.4
20260509212226 27 123 0.0 6.4 0.00 0.00 0.00 53 1011.6
20260509211225 27 212 0.0 3.2 0.00 0.00 0.00 52 1011.7
20260509210224 27 232 0.0 12.9 0.00 0.00 0.00 52 1011.6
20260509205223 27 117 0.0 6.4 0.00 0.00 0.00 52 1011.7
20260509203221 27 137 0.0 8.0 0.00 0.00 0.00 52 1011.8
20260509202219 27 217 0.0 9.7 0.00 0.00 0.00 54 1011.9
20260509201218 27 131 0.0 8.0 0.00 0.00 0.00 53 1011.9
20260509200217 27 207 0.0 3.2 0.00 0.00 0.00 53 1011.9
20260509195216 27 82 0.0 6.4 0.00 0.00 0.00 53 1012.1
20260509194216 27 110 0.0 6.4 0.00 0.00 0.00 54 1012.2
20260509193215 26 73 0.0 6.4 0.00 0.00 0.00 55 1012.3
20260509192214 26 175 0.0 8.0 0.00 0.00 0.00 56 1012.4
20260509191212 26 108 0.0 3.2 0.00 0.00 0.00 56 1012.5
20260509190211 26 231 0.0 0.0 0.00 0.00 0.00 57 1012.6
20260509185210 26 281 0.0 0.0 0.00 0.00 0.00 57 1012.8
20260509184209 26 62 0.0 0.0 0.00 0.00 0.00 57 1012.7
20260509183208 25 120 0.0 8.0 0.00 0.00 0.00 60 1012.8
20260509182207 25 219 0.0 0.0 0.00 0.00 0.00 60 1012.9
20260509180205 24 205 0.0 0.0 0.00 0.00 0.00 62 1013.2
20260509175204 24 245 0.0 0.0 0.00 0.00 0.00 64 1013.2
20260509174203 23 71 0.0 0.0 0.00 0.00 0.00 64 1013.2
20260509171200 22 132 0.0 0.0 0.00 0.00 0.00 69 1013.3
20260509170159 22 243 0.0 0.0 0.00 0.00 0.00 69 1013.3
20260509164157 21 115 0.0 0.0 0.00 0.00 0.00 74 1013.1
20260509163156 20 167 0.0 0.0 0.00 0.00 0.00 76 1013.2
20260509161154 18 149 0.0 0.0 0.00 0.00 0.00 83 1013.3
20260509160153 17 148 0.0 0.0 0.00 0.00 0.00 85 1013.3
20260509155152 16 148 0.0 0.0 0.00 0.00 0.00 86 1013.4
20260509154151 16 226 0.0 0.0 0.00 0.00 0.00 88 1013.5
20260509152149 16 110 0.0 0.0 0.00 0.00 0.00 89 1013.6
20260509151148 16 118 0.0 0.0 0.00 0.00 0.00 89 1013.6
20260509150147 15 80 0.0 0.0 0.00 0.00 0.00 90 1013.5
20260509145145 15 113 0.0 0.0 0.00 0.00 0.00 90 1013.5
20260509144145 15 113 0.0 0.0 0.00 0.00 0.00 90 1013.4
20260509143144 15 113 0.0 0.0 0.00 0.00 0.00 90 1013.3
20260509142142 15 113 0.0 0.0 0.00 0.00 0.00 90 1013.4
20260509141142 15 83 0.0 0.0 0.00 0.00 0.00 91 1013.3
20260509134138 15 106 0.0 0.0 0.00 0.00 0.00 90 1013.2
20260509132136 15 106 0.0 0.0 0.00 0.00 0.00 90 1013.0
20260509131135 15 106 0.0 0.0 0.00 0.00 0.00 90 1013.0
20260509124132 15 106 0.0 0.0 0.00 0.00 0.00 90 1012.9
20260509123131 15 106 0.0 0.0 0.00 0.00 0.00 90 1012.9
20260509122130 15 106 0.0 0.0 0.00 0.00 0.00 90 1012.9
20260509121129 15 106 0.0 0.0 0.00 0.00 0.00 90 1012.8
20260509120128 15 106 0.0 0.0 0.00 0.00 0.00 90 1012.7
20260509115127 15 103 0.0 0.0 0.00 0.00 0.00 90 1012.8
20260509114126 15 103 0.0 0.0 0.00 0.00 0.00 90 1012.8
20260509113125 15 103 0.0 0.0 0.00 0.00 0.00 90 1012.8
20260509112124 15 103 0.0 0.0 0.00 0.00 0.00 90 1012.8
20260509111123 15 103 0.0 0.0 0.00 0.00 0.00 90 1012.8
20260509110122 15 109 0.0 0.0 0.00 0.00 0.00 90 1012.9
20260509105121 15 109 0.0 0.0 0.00 0.00 0.00 90 1013.0
20260509104120 15 109 0.0 0.0 0.00 0.00 0.00 90 1012.9
20260509103119 15 115 0.0 0.0 0.00 0.00 0.00 90 1012.8
20260509102118 15 96 0.0 0.0 0.00 0.00 0.00 90 1012.9
20260509101117 15 96 0.0 0.0 0.00 0.00 0.00 90 1013.0
20260509100116 15 96 0.0 0.0 0.00 0.00 0.00 90 1013.0
20260509095115 15 96 0.0 0.0 0.00 0.00 0.00 89 1013.0
20260509094114 15 107 0.0 0.0 0.00 0.00 0.00 89 1013.2
20260509093113 15 107 0.0 0.0 0.00 0.00 0.00 89 1013.2
20260509092111 15 107 0.0 0.0 0.00 0.00 0.00 90 1013.2
20260509091111 15 107 0.0 0.0 0.00 0.00 0.00 89 1013.2
20260509090110 15 107 0.0 0.0 0.00 0.00 0.00 90 1013.3
20260509085108 15 107 0.0 0.0 0.00 0.00 0.00 90 1013.3
20260509084108 15 111 0.0 0.0 0.00 0.00 0.00 90 1013.5
20260509083106 15 102 0.0 0.0 0.00 0.00 0.00 90 1013.5
20260509082105 15 105 0.0 0.0 0.00 0.00 0.00 90 1013.5
20260509081104 14 98 0.0 1.6 0.00 0.00 0.00 90 1013.6
20260509080104 14 115 0.0 0.0 0.00 0.00 0.00 90 1013.6
20260509075102 14 115 0.0 0.0 0.00 0.00 0.00 90 1013.7
20260509074102 14 115 0.0 0.0 0.00 0.00 0.00 90 1013.8
20260509072059 14 115 0.0 0.0 0.00 0.00 0.00 89 1013.6
20260509071058 14 115 0.0 0.0 0.00 0.00 0.00 89 1013.8